Regional Weather Roundup
Issued by NWS Newport/Morehead, NC

Home | Current Version | Previous Version | Text Only | Print | Product List | Glossary On
Versions: 1 2 3 4 5 6 7 8 9 10 11 12 13 14 15 16 17 18 19 20 21 22 23 24 25 26 27 28 29 30 31 32 33 34 35 36 37 38 39 40 41 42 43 44 45 46 47 48 49 50
000
ASUS42 KMHX 011922
RWRMHX
WEATHER ROUNDUP FOR EASTERN NORTH CAROLINA
NATIONAL WEATHER SERVICE NEWPORT/MOREHEAD CITY NC
200 PM EST SUN FEB 01 2015

NOTE: "FAIR" INDICATES FEW OR NO CLOUDS BELOW 12,000 FEET
WITH NO SIGNIFICANT WEATHER AND/OR OBSTRUCTIONS TO VISIBILITY

NCZ015>017-031-032-045>047-102-103-012000-
NORTH COAST

CITY           SKY/WX    TMP DP  RH WIND       PRES   REMARKS
EDENTON        PTSUNNY   50  27  41 E5        30.18F
ELIZABETH CITY PTSUNNY   47  26  44 S7        30.21F
KITTY HAWK     MOCLDY    47  21  36 S3        30.21F
MANTEO         PTSUNNY   45  27  49 CALM      30.23F

$$

NCZ045>047-081-094-103-104-012000-
CENTRAL COAST

CITY           SKY/WX    TMP DP  RH WIND       PRES   REMARKS
FRISCO         CLOUDY    49  34  56 W6        30.24S
SWANQUARTER      N/A     50 N/A N/A S8        30.15F

$$

NCZ095-097-098-100-101-012000-
SOUTHERN COAST

CITY           SKY/WX    TMP DP  RH WIND       PRES   REMARKS
BEAUFORT       CLOUDY    52  38  58 SW6       30.23F
CEDAR ISLAND     N/A     57 N/A N/A S7G15     30.24F
JACKSONVILLE   CLOUDY    56  28  34 S9        30.20F
PINEY ISLAND     N/A    N/A N/A N/A MISG      30.23F
WILMINGTON     MOSUNNY   60  31  33 SW15      30.18F


$$

NCZ011>013-027>030-043-044-078>080-089-090>093-098-012000-
COASTAL PLAIN

CITY           SKY/WX    TMP DP  RH WIND       PRES   REMARKS
AHOSKIE        CLOUDY    51  23  33 S6        30.17F
CLINTON        PTSUNNY   57  27  31 S6        30.17F
ELIZABETHTOWN  PTSUNNY   60  34  37 SW10G16   30.15F
GOLDSBORO      PTSUNNY   55  23  29 S6        30.16F
GREENVILLE     CLOUDY    55  23  28 S9        30.20F
HAVELOCK       CLOUDY    55  19  24 S10       30.23F
KENANSVILLE    PTSUNNY   56  23  28 CALM      30.18F
KINSTON        CLOUDY    55  21  26 S13       30.20F
NEW BERN       PTSUNNY   57  17  21 SW9       30.22F
RICHLANDS      CLOUDY    57  30  35 S8        30.19F
ROCKY MOUNT    CLOUDY    54  22  28 S13       30.17F
WASHINGTON     PTSUNNY   54  21  28 SW9       30.19F
WHITEVILLE     MOSUNNY   61  37  41 S12G18    30.16F

$$

AMZ130-135-150-152-154-156-158-170-250-252-270-ANZ085-086-088-633-658-670-012000-
MARINE OBSERVATIONS

STATION/POSITION TIME  TEMP    WIND        PRES    WAVE   SWELL
                       AIR SEA DIR/SP/G            HT/PER HT/PER
                 (UTC) (F)     (DEG/KT/KT) (MB)    (FT/S) (FT/S)
CHESAPEAKE LIGHT 1900   41     130/ 12/ 13 1022.9
64 E VA BEACH    1900   46 48  120/  4/  6 1022.8    3/11   3/11
DUCK             1900   43 40  140/  5/  5 1022.2
2 E DUCK         1900      41                N/A     2/ 7   2/13
10 NE DUCK       1900      44                N/A     2/ 7   2/11
OREGON INLET     1900   43 36  160/  4/  6 1023.8
13E OREGON INLT  1900      46                N/A     3/12   2/12
HATTERAS CG      1900   47 48  290/  4/  5 1024.1
DIAMOND BUOY     1900   55 71  260/ 14/ 17 1023.7    5/10   5/10
17 S OCRACOKE    NOT AVBL
CAPE LOOKOUT     1900   50     290/  5/  7 1023.6
BEAUFORT LAB     1900   51 45  240/  4/  6 1022.6
27 SE WRIGHTSVLE NOT AVBL
5 SE WRIGHTSVLE  1900   53 52  180/  8/  8 1022.8
225 S CAPE HAT   1820   61 71  220/  6/ 10 1025.8    7/11   7/11
41 SE CHARLESTON 1900   63 71  170/ 12/ 16 1022.2    3/11   3/11

$$


USA.gov is the U.S. government's official web portal to all federal, state and local government web resources and services.